• In Deutschland
  • Länderverzeichnis
  • Für 7 Tage
  • Wassertemperatur
  • Satellitenkarten
  • Wetterkarte
  • Widgets
  • user-avatar
    Anmelden

    Stündliche Wetter Schumen

    Heute, 25 September, Montag

    Zeit Temperatur Niederschläge Wind Luftdruck Luftfeuchtigkeit
    00:00 +14°C° 0 mm 1 m/S 734 mmHg 63%
    01:00 +14°C° 0 mm 1 m/S 733 mmHg 65%
    02:00 +13°C° 0 mm 1 m/S 734 mmHg 70%
    03:00 +13°C° 0 mm 1 m/S 734 mmHg 71%
    04:00 +13°C° 0 mm 1 m/S 733 mmHg 72%
    05:00 +13°C° 0 mm 1 m/S 733 mmHg 74%
    06:00 +15°C° 0 mm 1 m/S 734 mmHg 69%
    07:00 +16°C° 0 mm 1 m/S 734 mmHg 65%
    08:00 +17°C° 0 mm 2 m/S 734 mmHg 60%
    09:00 +19°C° 0 mm 3 m/S 734 mmHg 55%
    10:00 +20°C° 0 mm 3 m/S 734 mmHg 50%
    11:00 +22°C° 0 mm 4 m/S 734 mmHg 44%
    12:00 +22°C° 0 mm 5 m/S 734 mmHg 44%
    13:00 +22°C° 0 mm 5 m/S 734 mmHg 43%
    14:00 +23°C° 0 mm 5 m/S 734 mmHg 44%
    15:00 +22°C° 0 mm 5 m/S 734 mmHg 46%
    16:00 +21°C° 0 mm 5 m/S 734 mmHg 49%
    17:00 +21°C° 0 mm 5 m/S 734 mmHg 52%
    18:00 +20°C° 0 mm 4 m/S 734 mmHg 59%
    19:00 +18°C° 0 mm 4 m/S 734 mmHg 66%
    20:00 +17°C° 0 mm 3 m/S 734 mmHg 73%
    21:00 +16°C° 0 mm 3 m/S 733 mmHg 77%
    22:00 +16°C° 0 mm 3 m/S 733 mmHg 82%
    23:00 +15°C° 0 mm 2 m/S 733 mmHg 86%

    Morgen, 26 September, Dienstag

    Zeit Temperatur Niederschläge Wind Luftdruck Luftfeuchtigkeit
    00:00 +15°C° 0 mm 2 m/S 733 mmHg 87%
    01:00 +14°C° 0 mm 2 m/S 733 mmHg 88%
    02:00 +14°C° 0 mm 2 m/S 732 mmHg 89%
    03:00 +14°C° 0 mm 2 m/S 732 mmHg 89%
    04:00 +13°C° 0 mm 3 m/S 732 mmHg 88%
    05:00 +13°C° 0 mm 3 m/S 732 mmHg 88%
    06:00 +14°C° 0 mm 3 m/S 732 mmHg 84%
    07:00 +15°C° 0 mm 4 m/S 732 mmHg 79%
    08:00 +17°C° 0 mm 4 m/S 732 mmHg 75%
    09:00 +17°C° 0,2 mm 5 m/S 733 mmHg 70%
    10:00 +20°C° 0,2 mm 5 m/S 733 mmHg 65%
    11:00 +22°C° 0,2 mm 5 m/S 733 mmHg 60%
    12:00 +21°C° 1,5 mm 6 m/S 733 mmHg 63%
    13:00 +21°C° 1,5 mm 6 m/S 733 mmHg 65%
    14:00 +21°C° 1,5 mm 7 m/S 733 mmHg 67%
    15:00 +20°C° 0,6 mm 7 m/S 733 mmHg 68%
    16:00 +20°C° 0,6 mm 6 m/S 733 mmHg 70%
    17:00 +19°C° 0,6 mm 6 m/S 733 mmHg 71%
    18:00 +17°C° 0 mm 5 m/S 733 mmHg 72%
    19:00 +16°C° 0 mm 5 m/S 733 mmHg 74%
    20:00 +15°C° 0 mm 5 m/S 734 mmHg 76%
    21:00 +15°C° 0 mm 4 m/S 734 mmHg 75%
    22:00 +15°C° 0 mm 4 m/S 734 mmHg 75%
    23:00 +14°C° 0 mm 4 m/S 734 mmHg 74%

    übermorgen, 27 September, Mittwoch

    Zeit Temperatur Niederschläge Wind Luftdruck Luftfeuchtigkeit
    00:00 +14°C° 0 mm 4 m/S 734 mmHg 74%
    01:00 +13°C° 0 mm 4 m/S 734 mmHg 75%
    02:00 +13°C° 0 mm 4 m/S 734 mmHg 75%
    03:00 +13°C° 0 mm 4 m/S 734 mmHg 75%
    04:00 +13°C° 0 mm 4 m/S 734 mmHg 75%
    05:00 +12°C° 0 mm 4 m/S 735 mmHg 75%
    06:00 +13°C° 0,1 mm 5 m/S 735 mmHg 72%
    07:00 +13°C° 0,1 mm 5 m/S 735 mmHg 70%
    08:00 +14°C° 0,1 mm 6 m/S 736 mmHg 68%
    09:00 +15°C° 0,1 mm 6 m/S 736 mmHg 67%
    10:00 +15°C° 0,1 mm 6 m/S 737 mmHg 66%
    11:00 +16°C° 0,1 mm 6 m/S 737 mmHg 65%
    12:00 +16°C° 0,1 mm 6 m/S 737 mmHg 65%
    13:00 +16°C° 0,1 mm 6 m/S 737 mmHg 65%
    14:00 +16°C° 0,1 mm 6 m/S 737 mmHg 65%
    15:00 +16°C° 0 mm 6 m/S 737 mmHg 63%
    16:00 +16°C° 0 mm 5 m/S 737 mmHg 62%
    17:00 +16°C° 0 mm 5 m/S 737 mmHg 60%
    18:00 +15°C° 0 mm 5 m/S 738 mmHg 64%
    19:00 +14°C° 0 mm 4 m/S 738 mmHg 69%
    20:00 +12°C° 0 mm 4 m/S 738 mmHg 73%
    21:00 +12°C° 0 mm 4 m/S 738 mmHg 75%
    22:00 +11°C° 0 mm 3 m/S 738 mmHg 77%
    23:00 +10°C° 0 mm 3 m/S 738 mmHg 79%

    28 September, Donnerstag

    Zeit Temperatur Niederschläge Wind Luftdruck Luftfeuchtigkeit
    00:00 +10°C° 0 mm 3 m/S 738 mmHg 79%
    01:00 +10°C° 0 mm 3 m/S 738 mmHg 78%
    02:00 +9°C° 0 mm 3 m/S 738 mmHg 78%
    03:00 +9°C° 0 mm 3 m/S 738 mmHg 77%
    04:00 +9°C° 0 mm 3 m/S 738 mmHg 75%
    05:00 +9°C° 0 mm 3 m/S 738 mmHg 73%
    06:00 +10°C° 0 mm 4 m/S 738 mmHg 71%
    07:00 +11°C° 0 mm 4 m/S 739 mmHg 68%
    08:00 +12°C° 0 mm 5 m/S 739 mmHg 66%
    09:00 +13°C° 0 mm 5 m/S 739 mmHg 63%
    10:00 +13°C° 0 mm 6 m/S 739 mmHg 60%
    11:00 +14°C° 0 mm 6 m/S 739 mmHg 57%
    12:00 +15°C° 0 mm 6 m/S 739 mmHg 55%
    13:00 +15°C° 0 mm 6 m/S 739 mmHg 53%
    14:00 +15°C° 0 mm 6 m/S 739 mmHg 52%
    15:00 +15°C° 0 mm 6 m/S 739 mmHg 53%
    16:00 +15°C° 0 mm 6 m/S 739 mmHg 54%
    17:00 +14°C° 0 mm 6 m/S 739 mmHg 56%
    18:00 +13°C° 0 mm 5 m/S 739 mmHg 61%
    19:00 +12°C° 0 mm 5 m/S 739 mmHg 66%
    20:00 +11°C° 0 mm 4 m/S 739 mmHg 71%
    21:00 +10°C° 0 mm 4 m/S 739 mmHg 72%
    22:00 +8°C° 0 mm 4 m/S 739 mmHg 73%
    23:00 +8°C° 0 mm 4 m/S 739 mmHg 74%

    29 September, Freitag

    Zeit Temperatur Niederschläge Wind Luftdruck Luftfeuchtigkeit
    00:00 +7°C° 0 mm 4 m/S 738 mmHg 73%
    01:00 +7°C° 0 mm 4 m/S 738 mmHg 73%
    02:00 +7°C° 0 mm 4 m/S 738 mmHg 72%
    03:00 +6°C° 0 mm 4 m/S 738 mmHg 71%
    04:00 +6°C° 0 mm 4 m/S 737 mmHg 69%
    05:00 +6°C° 0 mm 4 m/S 737 mmHg 68%
    06:00 +7°C° 0 mm 4 m/S 737 mmHg 64%
    07:00 +8°C° 0 mm 5 m/S 737 mmHg 61%
    08:00 +9°C° 0 mm 5 m/S 737 mmHg 58%
    09:00 +10°C° 0 mm 6 m/S 738 mmHg 55%
    10:00 +11°C° 0 mm 6 m/S 738 mmHg 53%
    11:00 +12°C° 0 mm 7 m/S 738 mmHg 51%
    12:00 +14°C° 0 mm 6 m/S 737 mmHg 50%
    13:00 +14°C° 0 mm 6 m/S 737 mmHg 48%
    14:00 +14°C° 0 mm 6 m/S 737 mmHg 47%
    15:00 +14°C° 0 mm 6 m/S 736 mmHg 46%
    16:00 +14°C° 0 mm 5 m/S 736 mmHg 44%
    17:00 +14°C° 0 mm 5 m/S 736 mmHg 43%
    18:00 +13°C° 0 mm 4 m/S 736 mmHg 48%
    19:00 +11°C° 0 mm 4 m/S 736 mmHg 52%
    20:00 +9°C° 0 mm 3 m/S 736 mmHg 57%
    21:00 +9°C° 0 mm 3 m/S 736 mmHg 59%
    22:00 +8°C° 0 mm 3 m/S 736 mmHg 60%
    23:00 +7°C° 0 mm 3 m/S 735 mmHg 61%

    30 September, Samstag

    Zeit Temperatur Niederschläge Wind Luftdruck Luftfeuchtigkeit
    00:00 +7°C° 0 mm 3 m/S 735 mmHg 60%
    01:00 +7°C° 0 mm 3 m/S 735 mmHg 59%
    02:00 +7°C° 0 mm 3 m/S 735 mmHg 58%
    03:00 +5°C° 0 mm 3 m/S 735 mmHg 59%
    04:00 +5°C° 0 mm 3 m/S 735 mmHg 60%
    05:00 +4°C° 0 mm 3 m/S 734 mmHg 61%
    06:00 +5°C° 0 mm 3 m/S 734 mmHg 58%
    07:00 +7°C° 0 mm 3 m/S 735 mmHg 55%
    08:00 +7°C° 0 mm 4 m/S 735 mmHg 52%
    09:00 +10°C° 0 mm 4 m/S 735 mmHg 46%
    10:00 +12°C° 0 mm 4 m/S 735 mmHg 40%
    11:00 +14°C° 0 mm 5 m/S 735 mmHg 34%
    12:00 +15°C° 0 mm 4 m/S 734 mmHg 31%
    13:00 +17°C° 0 mm 4 m/S 734 mmHg 28%
    14:00 +17°C° 0 mm 4 m/S 734 mmHg 25%
    15:00 +17°C° 0 mm 4 m/S 734 mmHg 26%
    16:00 +16°C° 0 mm 3 m/S 733 mmHg 27%
    17:00 +16°C° 0 mm 3 m/S 733 mmHg 28%
    18:00 +14°C° 0 mm 2 m/S 733 mmHg 32%
    19:00 +12°C° 0 mm 2 m/S 733 mmHg 36%
    20:00 +10°C° 0 mm 1 m/S 733 mmHg 40%
    21:00 +9°C° 0 mm 1 m/S 733 mmHg 42%
    22:00 +9°C° 0 mm 1 m/S 733 mmHg 43%
    23:00 +8°C° 0 mm 1 m/S 733 mmHg 45%
    Mehr zeigen